Tracking 28081 objects as of 27-Sep-2023
HD Live streaming from Space Station
objects crossing your sky now

STARLINK-3888

Track STARLINK-3888 now!
10-day predictions
STARLINK-3888 is classified as:


NORAD ID: 52454
Int'l Code: 2022-049D
Perigee: 546.1 km
Apogee: 547.7 km
Inclination: 53.2 °
Period: 95.4 minutes
Semi major axis: 6917 km
RCS: Unknown
Launch date: May 6, 2022
Source: United States (US)
Launch site: AIR FORCE EASTERN TEST RANGE (AFETR)
Your satellite tracking list
Your tracking list is empty




NASA's NSSDC Master Catalog

Two Line Element Set (TLE):
1 52454U 22049D   23269.87111524  .00002678  00000-0  18628-3 0  9999
2 52454  53.2158 126.1150 0001142  82.2843 277.8279 15.08844260 77180
Source of the keplerian elements: AFSPC